This is the latest recevied weather packets stored in our database for station/object K4WCH. If no packets are shown the sender has not sent any weather packets the latest 10 day(s).
| Time | Temp. | Humidity | Pressure | Rain* | Wind** | Luminosity | Snow |
|---|---|---|---|---|---|---|---|
| 1787839935 | 28.89° C | 85% | 1017.6 hPa | 0 mm | - | 614 W/m² | - |
| 1787839630 | 28.33° C | 84% | 1017.6 hPa | 0 mm | - | 590 W/m² | - |
| 1787839325 | 28.33° C | 86% | 1017.4 hPa | 0 mm | - | 574 W/m² | - |
| 1787839025 | 28.33° C | 86% | 1017.5 hPa | 0 mm | - | 553 W/m² | - |
| 1787838724 | 27.78° C | 85% | 1017.4 hPa | 0 mm | - | 526 W/m² | - |
| 1787838423 | 27.78° C | 86% | 1017.5 hPa | 0 mm | - | 518 W/m² | - |
| 1787838122 | 27.78° C | 86% | 1017.3 hPa | 0 mm | - | 503 W/m² | - |
| 1787837817 | 27.78° C | 88% | 1017.4 hPa | 0 mm | - | 483 W/m² | - |
| 1787837512 | 27.22° C | 89% | 1017.3 hPa | 0 mm | - | 463 W/m² | - |
| 1787837212 | 26.67° C | 90% | 1017.4 hPa | 0 mm | - | 440 W/m² | - |
| 1787836910 | 26.67° C | 90% | 1017.5 hPa | 0 mm | - | 417 W/m² | - |
| 1787836606 | 26.67° C | 92% | 1017.5 hPa | 0 mm | - | 395 W/m² | - |
| 1787836305 | 26.67° C | 92% | 1017.6 hPa | 0 mm | - | 373 W/m² | - |
| 1787836001 | 26.11° C | 93% | 1017.6 hPa | 0 mm | - | 351 W/m² | - |
| 1787835697 | 25.56° C | 93% | 1017.6 hPa | 0 mm | - | 326 W/m² | - |
| 1787835392 | 25.56° C | 94% | 1017.4 hPa | 0 mm | - | 305 W/m² | - |
| 1787835087 | 25° C | 95% | 1017.5 hPa | 0 mm | - | 235 W/m² | - |
| 1787834785 | 25° C | 96% | 1017.2 hPa | 0 mm | - | 228 W/m² | - |
| 1787834480 | 24.44° C | 97% | 1017.2 hPa | 0 mm | - | 192 W/m² | - |
| 1787834176 | 24.44° C | 98% | 1017.1 hPa | 0 mm | - | 174 W/m² | - |
| 1787833872 | 24.44° C | 99% | 1017.2 hPa | 0 mm | - | 156 W/m² | - |
| 1787833566 | 23.89° C | 99% | 1017.2 hPa | 0 mm | - | 85 W/m² | - |
| 1787833262 | 23.33° C | 99% | 1017.1 hPa | 0 mm | - | 102 W/m² | - |
| 1787832963 | 23.89° C | 99% | 1017 hPa | 0 mm | - | 75 W/m² | - |
| 1787832659 | 23.33° C | 99% | 1017.2 hPa | 0 mm | - | 74 W/m² | - |
* Rain latest hour (hover to see other rain measurements)
** Current wind speed in m/s (hover to see current wind gust speed)